Location: Santa Cristina
(46.5667°N, 11.7167°E)
Time: 17:59:38
(UTC+00:00)

Cosmos 990 Rocket - Pass Details

Date: 21 April 2021
Orbit: 746 x 770 km, 74.0° (Epoch: 11 May)

Event Time Altitude Azimuth Distance (km) Brightness Sun altitude
Exits shadow 01:12:31 56° 136° (SE) 901 4.2 -25.6°
Maximum altitude 01:13:04 60° 107° (ESE) 871 4.2 -25.6°
Drops below altitude 10° 01:18:12 10° 29° (NNE) 2,305 7.5 -25.1°
Sets 01:20:37 0° 25° (NNE) 3,239 8.6 -24.8°
